Saint Bonnet de Bellac- Haute Vienne - France
Donnes mto: mercredi, 22/08/2012
Date Horaire Temp. E. Hum. E. P.atmo. Pluie Vent Direction Direction Ensoleilleme Solaire P. de rose Temp au vent Rafales
22/08/2012 00:00 21,7 C 67 % 1019,0 hPa 0,0 mm 0,0 km/h (0 Bft) NO 315 0 min 0 W/m 15,3 C 21,7 C 0,0 km/h (0 Bft)
22/08/2012 00:10 21,5 C 68 % 1019,1 hPa 0,0 mm 0,0 km/h (0 Bft) NO 315 0 min 0 W/m 15,3 C 21,5 C 0,0 km/h (0 Bft)
22/08/2012 00:20 21,4 C 68 % 1019,1 hPa 0,0 mm 0,0 km/h (0 Bft) NO 315 0 min 0 W/m 15,2 C 21,4 C 0,0 km/h (0 Bft)
22/08/2012 00:30 21,4 C 69 % 1019,2 hPa 0,0 mm 0,0 km/h (0 Bft) NO 315 0 min 0 W/m 15,5 C 21,4 C 0,0 km/h (0 Bft)
22/08/2012 00:40 21,3 C 69 % 1019,1 hPa 0,0 mm 0,0 km/h (0 Bft) NO 315 0 min 0 W/m 15,4 C 21,3 C 0,0 km/h (0 Bft)
22/08/2012 00:50 21,1 C 69 % 1019,3 hPa 0,0 mm 0,0 km/h (0 Bft) O-NO 292 0 min 0 W/m 15,2 C 21,1 C 0,0 km/h (0 Bft)
22/08/2012 01:00 20,9 C 69 % 1019,3 hPa 0,0 mm 0,0 km/h (0 Bft) NO 315 0 min 0 W/m 15,0 C 20,9 C 0,0 km/h (0 Bft)
22/08/2012 01:10 20,8 C 69 % 1019,4 hPa 0,0 mm 0,0 km/h (0 Bft) NO 315 0 min 0 W/m 14,9 C 20,8 C 0,0 km/h (0 Bft)
22/08/2012 01:20 20,6 C 69 % 1019,4 hPa 0,0 mm 0,0 km/h (0 Bft) N-NO 337 0 min 0 W/m 14,7 C 20,6 C 0,0 km/h (0 Bft)
22/08/2012 01:30 20,4 C 69 % 1019,3 hPa 0,0 mm 0,0 km/h (0 Bft) N-NO 337 0 min 0 W/m 14,5 C 20,4 C 0,0 km/h (0 Bft)
22/08/2012 01:40 20,2 C 70 % 1019,2 hPa 0,0 mm 0,0 km/h (0 Bft) O-NO 292 0 min 0 W/m 14,5 C 20,2 C 0,0 km/h (0 Bft)
22/08/2012 01:50 19,9 C 70 % 1019,3 hPa 0,0 mm 0,0 km/h (0 Bft) O-NO 292 0 min 0 W/m 14,3 C 19,9 C 0,0 km/h (0 Bft)
22/08/2012 02:00 19,7 C 71 % 1019,3 hPa 0,0 mm 0,0 km/h (0 Bft) O-NO 292 0 min 0 W/m 14,3 C 19,7 C 0,0 km/h (0 Bft)
22/08/2012 02:10 19,5 C 71 % 1019,3 hPa 0,0 mm 0,4 km/h (0 Bft) NO 315 0 min 0 W/m 14,1 C 19,5 C 0,4 km/h (0 Bft)
22/08/2012 02:20 19,3 C 72 % 1019,3 hPa 0,0 mm 0,0 km/h (0 Bft) NO 315 0 min 0 W/m 14,1 C 19,3 C 4,0 km/h (1 Bft)
22/08/2012 02:30 19,3 C 72 % 1019,4 hPa 0,0 mm 1,1 km/h (1 Bft) NO 315 0 min 0 W/m 14,1 C 19,3 C 4,3 km/h (1 Bft)
22/08/2012 02:40 19,1 C 73 % 1019,5 hPa 0,0 mm 0,0 km/h (0 Bft) N-NO 337 0 min 0 W/m 14,1 C 19,1 C 0,0 km/h (0 Bft)
22/08/2012 02:50 19,0 C 73 % 1019,6 hPa 0,0 mm 0,4 km/h (0 Bft) N-NO 337 0 min 0 W/m 14,0 C 19,0 C 3,6 km/h (1 Bft)
22/08/2012 03:02 18,9 C 74 % 1019,6 hPa 0,0 mm 0,0 km/h (0 Bft) N-NO 337 0 min 0 W/m 14,2 C 18,9 C 0,0 km/h (0 Bft)
22/08/2012 03:10 18,9 C 74 % 1019,7 hPa 0,0 mm 0,0 km/h (0 Bft) N-NO 337 0 min 0 W/m 14,2 C 18,9 C 0,0 km/h (0 Bft)
22/08/2012 03:20 18,9 C 75 % 1019,7 hPa 0,0 mm 0,7 km/h (0 Bft) N 360 0 min 0 W/m 14,4 C 18,9 C 0,7 km/h (0 Bft)
22/08/2012 03:30 18,9 C 75 % 1019,7 hPa 0,0 mm 1,4 km/h (1 Bft) N-NE 22 0 min 0 W/m 14,4 C 18,9 C 4,3 km/h (1 Bft)
22/08/2012 03:40 18,9 C 75 % 1019,7 hPa 0,0 mm 0,0 km/h (0 Bft) N 360 0 min 0 W/m 14,4 C 18,9 C 3,2 km/h (1 Bft)
22/08/2012 03:50 18,8 C 76 % 1019,7 hPa 0,0 mm 0,0 km/h (0 Bft) N-NO 337 0 min 0 W/m 14,5 C 18,8 C 0,0 km/h (0 Bft)
22/08/2012 04:00 18,7 C 76 % 1019,7 hPa 0,0 mm 0,0 km/h (0 Bft) NO 315 0 min 0 W/m 14,4 C 18,7 C 0,0 km/h (0 Bft)
22/08/2012 04:10 18,6 C 77 % 1019,8 hPa 0,0 mm 0,0 km/h (0 Bft) NO 315 0 min 0 W/m 14,5 C 18,6 C 0,0 km/h (0 Bft)
22/08/2012 04:20 18,4 C 77 % 1019,8 hPa 0,0 mm 0,0 km/h (0 Bft) N 360 0 min 0 W/m 14,3 C 18,4 C 0,0 km/h (0 Bft)
22/08/2012 04:30 18,3 C 77 % 1019,9 hPa 0,0 mm 0,0 km/h (0 Bft) N 360 0 min 0 W/m 14,2 C 18,3 C 0,0 km/h (0 Bft)
22/08/2012 04:40 18,1 C 78 % 1020,0 hPa 0,0 mm 0,0 km/h (0 Bft) N 360 0 min 0 W/m 14,2 C 18,1 C 0,0 km/h (0 Bft)
22/08/2012 04:50 17,8 C 78 % 1020,0 hPa 0,0 mm 0,0 km/h (0 Bft) N-NE 22 0 min 0 W/m 13,9 C 17,8 C 0,0 km/h (0 Bft)
22/08/2012 05:00 17,6 C 79 % 1020,0 hPa 0,0 mm 1,4 km/h (1 Bft) N-NO 337 0 min 0 W/m 13,9 C 17,6 C 1,4 km/h (1 Bft)
22/08/2012 05:10 17,4 C 79 % 1020,0 hPa 0,0 mm 0,0 km/h (0 Bft) N-NO 337 0 min 0 W/m 13,7 C 17,4 C 0,0 km/h (0 Bft)
22/08/2012 05:20 17,2 C 80 % 1020,0 hPa 0,0 mm 0,4 km/h (0 Bft) N 360 0 min 0 W/m 13,7 C 17,2 C 0,4 km/h (0 Bft)
22/08/2012 05:30 17,1 C 81 % 1019,9 hPa 0,0 mm 0,0 km/h (0 Bft) N 360 0 min 0 W/m 13,8 C 17,1 C 0,0 km/h (0 Bft)
22/08/2012 05:40 16,9 C 81 % 1019,8 hPa 0,0 mm 0,4 km/h (0 Bft) N-NE 22 0 min 0 W/m 13,6 C 16,9 C 3,2 km/h (1 Bft)
22/08/2012 05:50 16,8 C 82 % 1019,8 hPa 0,0 mm 0,7 km/h (0 Bft) N-NE 22 0 min 0 W/m 13,7 C 16,8 C 4,0 km/h (1 Bft)
22/08/2012 06:00 16,8 C 82 % 1019,8 hPa 0,0 mm 0,4 km/h (0 Bft) NE 45 0 min 0 W/m 13,7 C 16,8 C 3,6 km/h (1 Bft)
22/08/2012 06:10 16,6 C 82 % 1020,0 hPa 0,0 mm 0,0 km/h (0 Bft) N-NE 22 0 min 0 W/m 13,5 C 16,6 C 0,0 km/h (0 Bft)
22/08/2012 06:20 16,5 C 82 % 1019,9 hPa 0,0 mm 0,0 km/h (0 Bft) N-NE 22 0 min 0 W/m 13,4 C 16,5 C 0,0 km/h (0 Bft)
22/08/2012 06:30 16,3 C 83 % 1020,0 hPa 0,0 mm 0,0 km/h (0 Bft) N 360 0 min 0 W/m 13,4 C 16,3 C 0,0 km/h (0 Bft)
22/08/2012 06:40 16,3 C 84 % 1020,1 hPa 0,0 mm 0,0 km/h (0 Bft) N-NO 337 0 min 0 W/m 13,6 C 16,3 C 0,0 km/h (0 Bft)
22/08/2012 06:50 16,2 C 84 % 1019,9 hPa 0,0 mm 0,4 km/h (0 Bft) N 360 0 min 0 W/m 13,5 C 16,2 C 0,4 km/h (0 Bft)
22/08/2012 07:00 16,1 C 84 % 1020,0 hPa 0,0 mm 0,0 km/h (0 Bft) N 360 0 min 0 W/m 13,4 C 16,1 C 0,0 km/h (0 Bft)
22/08/2012 07:10 16,1 C 84 % 1020,0 hPa 0,0 mm 1,1 km/h (1 Bft) N 360 0 min 0 W/m 13,4 C 16,1 C 4,3 km/h (1 Bft)
22/08/2012 07:20 16,0 C 85 % 1020,0 hPa 0,0 mm 0,0 km/h (0 Bft) N-NE 22 0 min 0 W/m 13,5 C 16,0 C 0,0 km/h (0 Bft)
22/08/2012 07:30 15,9 C 85 % 1020,2 hPa 0,0 mm 1,1 km/h (1 Bft) E-NE 67 0 min 0 W/m 13,4 C 15,9 C 4,0 km/h (1 Bft)
22/08/2012 07:40 15,9 C 85 % 1020,1 hPa 0,0 mm 1,8 km/h (1 Bft) NE 45 0 min 0 W/m 13,4 C 15,9 C 1,8 km/h (1 Bft)
22/08/2012 07:50 15,9 C 86 % 1020,0 hPa 0,0 mm 0,7 km/h (0 Bft) N-NE 22 0 min 0 W/m 13,6 C 15,9 C 3,2 km/h (1 Bft)
22/08/2012 08:00 16,2 C 86 % 1020,0 hPa 0,0 mm 0,7 km/h (0 Bft) N-NE 22 0 min 0 W/m 13,9 C 16,2 C 3,2 km/h (1 Bft)
22/08/2012 08:10 16,4 C 87 % 1020,0 hPa 0,0 mm 2,2 km/h (1 Bft) N-NE 22 0 min 0 W/m 14,2 C 16,4 C 6,5 km/h (2 Bft)
22/08/2012 08:20 16,8 C 87 % 1019,9 hPa 0,0 mm 4,7 km/h (1 Bft) N-NE 22 0 min 0 W/m 14,6 C 16,8 C 6,5 km/h (2 Bft)
22/08/2012 08:30 17,2 C 85 % 1020,0 hPa 0,0 mm 2,9 km/h (1 Bft) N-NE 22 0 min 0 W/m 14,7 C 17,2 C 4,0 km/h (1 Bft)
22/08/2012 08:40 17,6 C 83 % 1020,0 hPa 0,0 mm 1,8 km/h (1 Bft) E-NE 67 0 min 0 W/m 14,7 C 17,6 C 3,6 km/h (1 Bft)
22/08/2012 08:40 17,6 C 83 % 1020,0 hPa 0,0 mm 1,8 km/h (1 Bft) E-NE 67 0 min 0 W/m 14,7 C 17,6 C 3,6 km/h (1 Bft)
22/08/2012 08:50 18,3 C 81 % 1020,1 hPa 0,0 mm 2,2 km/h (1 Bft) N-NE 22 0 min 0 W/m 15,0 C 18,3 C 3,6 km/h (1 Bft)
22/08/2012 08:50 18,3 C 81 % 1020,1 hPa 0,0 mm 2,2 km/h (1 Bft) N-NE 22 0 min 0 W/m 15,0 C 18,3 C 3,6 km/h (1 Bft)
22/08/2012 09:00 18,8 C 77 % 1020,0 hPa 0,0 mm 3,2 km/h (1 Bft) NE 45 0 min 0 W/m 14,7 C 18,8 C 3,2 km/h (1 Bft)
22/08/2012 09:00 18,8 C 77 % 1020,0 hPa 0,0 mm 3,2 km/h (1 Bft) NE 45 0 min 0 W/m 14,7 C 18,8 C 3,2 km/h (1 Bft)
22/08/2012 09:10 19,3 C 74 % 1020,0 hPa 0,0 mm 4,7 km/h (1 Bft) NE 45 0 min 0 W/m 14,5 C 19,3 C 7,9 km/h (2 Bft)
22/08/2012 09:10 19,3 C 74 % 1020,0 hPa 0,0 mm 4,7 km/h (1 Bft) NE 45 0 min 0 W/m 14,5 C 19,3 C 7,9 km/h (2 Bft)
22/08/2012 09:20 19,8 C 72 % 1020,0 hPa 0,0 mm 4,0 km/h (1 Bft) N-NE 22 0 min 0 W/m 14,6 C 19,8 C 8,3 km/h (2 Bft)
22/08/2012 09:20 19,8 C 72 % 1020,0 hPa 0,0 mm 4,0 km/h (1 Bft) N-NE 22 0 min 0 W/m 14,6 C 19,8 C 8,3 km/h (2 Bft)
22/08/2012 09:30 20,4 C 71 % 1020,1 hPa 0,0 mm 2,9 km/h (1 Bft) N 360 0 min 0 W/m 15,0 C 20,4 C 4,3 km/h (1 Bft)
22/08/2012 09:40 20,9 C 67 % 1020,1 hPa 0,0 mm 5,4 km/h (2 Bft) N 360 0 min 0 W/m 14,5 C 20,9 C 6,5 km/h (2 Bft)
22/08/2012 09:40 20,9 C 67 % 1020,1 hPa 0,0 mm 5,4 km/h (2 Bft) N 360 0 min 0 W/m 14,5 C 20,9 C 6,5 km/h (2 Bft)
22/08/2012 09:50 21,4 C 65 % 1020,2 hPa 0,0 mm 1,8 km/h (1 Bft) N 360 0 min 0 W/m 14,5 C 21,4 C 4,0 km/h (1 Bft)
22/08/2012 09:50 21,4 C 65 % 1020,2 hPa 0,0 mm 1,8 km/h (1 Bft) N 360 0 min 0 W/m 14,5 C 21,4 C 4,0 km/h (1 Bft)
22/08/2012 10:00 22,1 C 62 % 1020,1 hPa 0,0 mm 6,5 km/h (2 Bft) N-NE 22 0 min 0 W/m 14,5 C 22,1 C 9,4 km/h (2 Bft)
22/08/2012 10:00 22,1 C 62 % 1020,1 hPa 0,0 mm 6,5 km/h (2 Bft) N-NE 22 0 min 0 W/m 14,5 C 22,1 C 9,4 km/h (2 Bft)
22/08/2012 10:10 22,4 C 60 % 1020,1 hPa 0,0 mm 6,8 km/h (2 Bft) E-NE 67 0 min 0 W/m 14,2 C 22,4 C 8,3 km/h (2 Bft)
22/08/2012 10:20 22,9 C 58 % 1020,1 hPa 0,0 mm 3,2 km/h (1 Bft) N-NO 337 0 min 0 W/m 14,2 C 22,9 C 7,9 km/h (2 Bft)
22/08/2012 10:30 23,2 C 56 % 1020,2 hPa 0,0 mm 3,2 km/h (1 Bft) N-NE 22 0 min 0 W/m 13,9 C 23,2 C 8,3 km/h (2 Bft)
22/08/2012 10:40 23,6 C 54 % 1020,3 hPa 0,0 mm 6,1 km/h (2 Bft) E 90 0 min 0 W/m 13,7 C 23,6 C 9,4 km/h (2 Bft)
22/08/2012 10:50 24,0 C 52 % 1020,3 hPa 0,0 mm 7,6 km/h (2 Bft) NO 315 0 min 0 W/m 13,5 C 24,0 C 10,1 km/h (2 Bft)
22/08/2012 11:00 24,5 C 51 % 1020,2 hPa 0,0 mm 4,0 km/h (1 Bft) N-NE 22 0 min 0 W/m 13,7 C 24,5 C 4,0 km/h (1 Bft)
22/08/2012 11:10 25,1 C 51 % 1020,1 hPa 0,0 mm 5,8 km/h (2 Bft) N-NE 22 0 min 0 W/m 14,2 C 25,1 C 12,2 km/h (2 Bft)
22/08/2012 11:20 25,4 C 49 % 1020,2 hPa 0,0 mm 6,8 km/h (2 Bft) N-NE 22 0 min 0 W/m 13,9 C 25,4 C 11,9 km/h (2 Bft)
22/08/2012 11:30 25,4 C 49 % 1020,1 hPa 0,0 mm 5,4 km/h (2 Bft) N 360 0 min 0 W/m 13,9 C 25,4 C 6,5 km/h (2 Bft)
22/08/2012 11:40 25,7 C 48 % 1020,2 hPa 0,0 mm 9,4 km/h (2 Bft) N 360 0 min 0 W/m 13,9 C 25,7 C 16,9 km/h (3 Bft)
22/08/2012 11:50 25,8 C 48 % 1020,2 hPa 0,0 mm 2,9 km/h (1 Bft) N-NE 22 0 min 0 W/m 13,9 C 25,8 C 4,0 km/h (1 Bft)
22/08/2012 12:00 26,3 C 47 % 1019,9 hPa 0,0 mm 6,5 km/h (2 Bft) N-NO 337 0 min 0 W/m 14,1 C 26,3 C 9,7 km/h (2 Bft)
22/08/2012 12:10 26,3 C 47 % 1019,8 hPa 0,0 mm 7,9 km/h (2 Bft) NE 45 0 min 0 W/m 14,1 C 26,3 C 10,8 km/h (2 Bft)
22/08/2012 12:20 26,6 C 46 % 1019,8 hPa 0,0 mm 2,5 km/h (1 Bft) N-NE 22 0 min 0 W/m 14,0 C 26,6 C 3,6 km/h (1 Bft)
22/08/2012 12:30 27,1 C 46 % 1019,8 hPa 0,0 mm 6,8 km/h (2 Bft) E 90 0 min 0 W/m 14,5 C 27,1 C 9,7 km/h (2 Bft)
22/08/2012 12:40 27,2 C 45 % 1019,7 hPa 0,0 mm 8,3 km/h (2 Bft) NE 45 0 min 0 W/m 14,2 C 27,2 C 8,3 km/h (2 Bft)
22/08/2012 12:50 27,3 C 45 % 1019,7 hPa 0,0 mm 4,3 km/h (1 Bft) NE 45 0 min 0 W/m 14,3 C 27,3 C 7,6 km/h (2 Bft)
22/08/2012 13:00 27,5 C 45 % 1019,5 hPa 0,0 mm 6,5 km/h (2 Bft) N 360 0 min 0 W/m 14,5 C 27,5 C 9,4 km/h (2 Bft)
22/08/2012 13:10 27,6 C 45 % 1019,5 hPa 0,0 mm 5,0 km/h (1 Bft) N-NE 22 0 min 0 W/m 14,6 C 27,6 C 5,0 km/h (1 Bft)
22/08/2012 13:20 27,9 C 44 % 1019,5 hPa 0,0 mm 5,8 km/h (2 Bft) N-NE 22 0 min 0 W/m 14,5 C 27,9 C 9,7 km/h (2 Bft)
22/08/2012 13:30 27,8 C 45 % 1019,4 hPa 0,0 mm 7,2 km/h (2 Bft) N 360 0 min 0 W/m 14,8 C 27,8 C 12,6 km/h (3 Bft)
22/08/2012 13:40 28,1 C 45 % 1019,4 hPa 0,0 mm 0,0 km/h (0 Bft) N 360 0 min 0 W/m 15,0 C 28,1 C 4,0 km/h (1 Bft)
22/08/2012 13:50 28,1 C 44 % 1019,2 hPa 0,0 mm 0,0 km/h (0 Bft) N 360 0 min 0 W/m 14,7 C 28,1 C 0,0 km/h (0 Bft)
22/08/2012 14:00 28,3 C 44 % 1019,3 hPa 0,0 mm 5,0 km/h (1 Bft) N-NO 337 0 min 0 W/m 14,9 C 28,3 C 8,6 km/h (2 Bft)
22/08/2012 14:10 28,6 C 44 % 1019,2 hPa 0,0 mm 6,1 km/h (2 Bft) E-NE 67 0 min 0 W/m 15,1 C 28,6 C 10,8 km/h (2 Bft)
22/08/2012 14:20 28,6 C 43 % 1019,3 hPa 0,0 mm 5,8 km/h (2 Bft) NE 45 0 min 0 W/m 14,8 C 28,6 C 11,5 km/h (2 Bft)
22/08/2012 14:30 28,8 C 42 % 1019,1 hPa 0,0 mm 6,1 km/h (2 Bft) N-NE 22 0 min 0 W/m 14,6 C 28,8 C 10,4 km/h (2 Bft)
22/08/2012 14:40 28,9 C 42 % 1019,0 hPa 0,0 mm 1,8 km/h (1 Bft) N 360 0 min 0 W/m 14,7 C 28,9 C 3,2 km/h (1 Bft)
22/08/2012 14:50 29,1 C 42 % 1018,9 hPa 0,0 mm 4,7 km/h (1 Bft) N-NO 337 0 min 0 W/m 14,9 C 29,1 C 9,0 km/h (2 Bft)
22/08/2012 15:00 29,1 C 42 % 1018,8 hPa 0,0 mm 6,8 km/h (2 Bft) N-NE 22 0 min 0 W/m 14,9 C 29,1 C 7,6 km/h (2 Bft)
22/08/2012 15:10 29,1 C 42 % 1018,7 hPa 0,0 mm 6,1 km/h (2 Bft) N 360 0 min 0 W/m 14,9 C 29,1 C 11,2 km/h (2 Bft)
22/08/2012 15:20 28,9 C 42 % 1018,7 hPa 0,0 mm 8,3 km/h (2 Bft) N-NE 22 0 min 0 W/m 14,7 C 28,9 C 14,4 km/h (3 Bft)
22/08/2012 15:30 28,8 C 42 % 1018,6 hPa 0,0 mm 5,4 km/h (2 Bft) NE 45 0 min 0 W/m 14,6 C 28,8 C 8,6 km/h (2 Bft)
22/08/2012 15:40 28,8 C 42 % 1018,7 hPa 0,0 mm 5,8 km/h (2 Bft) E-NE 67 0 min 0 W/m 14,6 C 28,8 C 9,0 km/h (2 Bft)
22/08/2012 15:50 28,9 C 42 % 1018,5 hPa 0,0 mm 6,5 km/h (2 Bft) N-NE 22 0 min 0 W/m 14,7 C 28,9 C 13,7 km/h (3 Bft)
22/08/2012 16:00 28,9 C 42 % 1018,4 hPa 0,0 mm 0,7 km/h (0 Bft) N 360 0 min 0 W/m 14,7 C 28,9 C 0,7 km/h (0 Bft)
22/08/2012 16:10 29,1 C 42 % 1018,2 hPa 0,0 mm 3,6 km/h (1 Bft) NO 315 0 min 0 W/m 14,9 C 29,1 C 8,3 km/h (2 Bft)
22/08/2012 16:20 29,3 C 42 % 1018,2 hPa 0,0 mm 4,0 km/h (1 Bft) N-NE 22 0 min 0 W/m 15,0 C 29,3 C 9,0 km/h (2 Bft)
22/08/2012 16:30 29,6 C 42 % 1018,1 hPa 0,0 mm 0,4 km/h (0 Bft) NE 45 0 min 0 W/m 15,3 C 29,6 C 0,4 km/h (0 Bft)
22/08/2012 16:40 29,6 C 41 % 1018,0 hPa 0,0 mm 4,0 km/h (1 Bft) N 360 0 min 0 W/m 14,9 C 29,6 C 6,8 km/h (2 Bft)
22/08/2012 16:50 29,6 C 42 % 1017,9 hPa 0,0 mm 8,3 km/h (2 Bft) NO 315 0 min 0 W/m 15,3 C 29,6 C 8,3 km/h (2 Bft)
22/08/2012 17:00 29,6 C 41 % 1018,0 hPa 0,0 mm 8,6 km/h (2 Bft) N-NE 22 0 min 0 W/m 14,9 C 29,6 C 8,6 km/h (2 Bft)
22/08/2012 17:10 29,6 C 42 % 1017,8 hPa 0,0 mm 6,5 km/h (2 Bft) N-NO 337 0 min 0 W/m 15,3 C 29,6 C 14,0 km/h (3 Bft)
22/08/2012 17:20 29,4 C 41 % 1017,7 hPa 0,0 mm 3,6 km/h (1 Bft) N-NO 337 0 min 0 W/m 14,7 C 29,4 C 7,2 km/h (2 Bft)
22/08/2012 17:30 29,4 C 42 % 1017,6 hPa 0,0 mm 0,7 km/h (0 Bft) N 360 0 min 0 W/m 15,1 C 29,4 C 0,7 km/h (0 Bft)
22/08/2012 17:40 29,5 C 41 % 1017,4 hPa 0,0 mm 0,0 km/h (0 Bft) N-NE 22 0 min 0 W/m 14,8 C 29,5 C 0,0 km/h (0 Bft)
22/08/2012 17:50 29,4 C 41 % 1017,4 hPa 0,0 mm 9,7 km/h (2 Bft) N-NO 337 0 min 0 W/m 14,7 C 29,4 C 14,0 km/h (3 Bft)
22/08/2012 18:00 29,3 C 42 % 1017,3 hPa 0,0 mm 6,1 km/h (2 Bft) NO 315 0 min 0 W/m 15,0 C 29,3 C 9,7 km/h (2 Bft)
22/08/2012 18:10 29,2 C 42 % 1017,3 hPa 0,0 mm 3,6 km/h (1 Bft) NE 45 0 min 0 W/m 14,9 C 29,2 C 5,8 km/h (2 Bft)
22/08/2012 18:20 29,1 C 42 % 1017,2 hPa 0,0 mm 2,5 km/h (1 Bft) N 360 0 min 0 W/m 14,9 C 29,1 C 10,1 km/h (2 Bft)
22/08/2012 18:30 28,9 C 42 % 1017,2 hPa 0,0 mm 5,4 km/h (2 Bft) N-NE 22 0 min 0 W/m 14,7 C 28,9 C 9,7 km/h (2 Bft)
22/08/2012 18:40 28,7 C 42 % 1017,1 hPa 0,0 mm 4,0 km/h (1 Bft) NE 45 0 min 0 W/m 14,5 C 28,7 C 10,1 km/h (2 Bft)
22/08/2012 18:50 28,4 C 42 % 1017,0 hPa 0,0 mm 3,2 km/h (1 Bft) N 360 0 min 0 W/m 14,2 C 28,4 C 7,9 km/h (2 Bft)
22/08/2012 19:00 28,2 C 42 % 1017,0 hPa 0,0 mm 4,3 km/h (1 Bft) N-NE 22 0 min 0 W/m 14,0 C 28,2 C 7,6 km/h (2 Bft)
22/08/2012 19:10 28,0 C 43 % 1017,0 hPa 0,0 mm 2,5 km/h (1 Bft) N-NE 22 0 min 0 W/m 14,2 C 28,0 C 4,3 km/h (1 Bft)
22/08/2012 19:20 27,8 C 42 % 1017,0 hPa 0,0 mm 3,6 km/h (1 Bft) N-NO 337 0 min 0 W/m 13,7 C 27,8 C 9,0 km/h (2 Bft)
22/08/2012 19:30 27,5 C 42 % 1017,0 hPa 0,0 mm 5,4 km/h (2 Bft) N-NO 337 0 min 0 W/m 13,4 C 27,5 C 11,9 km/h (2 Bft)
22/08/2012 19:40 27,2 C 42 % 1016,9 hPa 0,0 mm 1,1 km/h (1 Bft) N 360 0 min 0 W/m 13,2 C 27,2 C 1,1 km/h (1 Bft)
22/08/2012 19:50 26,8 C 43 % 1016,9 hPa 0,0 mm 2,9 km/h (1 Bft) N 360 0 min 0 W/m 13,2 C 26,8 C 7,6 km/h (2 Bft)
22/08/2012 20:00 26,4 C 43 % 1017,0 hPa 0,0 mm 2,2 km/h (1 Bft) N-NE 22 0 min 0 W/m 12,8 C 26,4 C 4,3 km/h (1 Bft)
22/08/2012 20:10 25,9 C 45 % 1017,0 hPa 0,0 mm 0,4 km/h (0 Bft) N-NE 22 0 min 0 W/m 13,0 C 25,9 C 3,2 km/h (1 Bft)
22/08/2012 20:20 25,4 C 45 % 1017,1 hPa 0,0 mm 6,8 km/h (2 Bft) N-NE 22 0 min 0 W/m 12,6 C 25,4 C 7,9 km/h (2 Bft)
22/08/2012 20:30 24,9 C 45 % 1017,2 hPa 0,0 mm 0,0 km/h (0 Bft) N 360 0 min 0 W/m 12,1 C 24,9 C 0,0 km/h (0 Bft)
22/08/2012 20:40 24,6 C 46 % 1017,2 hPa 0,0 mm 3,2 km/h (1 Bft) N 360 0 min 0 W/m 12,2 C 24,6 C 4,3 km/h (1 Bft)
22/08/2012 20:50 24,1 C 47 % 1017,3 hPa 0,0 mm 0,0 km/h (0 Bft) N-NE 22 0 min 0 W/m 12,1 C 24,1 C 0,0 km/h (0 Bft)
22/08/2012 21:00 23,6 C 48 % 1017,4 hPa 0,0 mm 0,0 km/h (0 Bft) N-NE 22 0 min 0 W/m 11,9 C 23,6 C 0,0 km/h (0 Bft)
22/08/2012 21:10 23,2 C 49 % 1017,6 hPa 0,0 mm 1,1 km/h (1 Bft) N-NE 22 0 min 0 W/m 11,9 C 23,2 C 1,1 km/h (1 Bft)
22/08/2012 21:20 22,9 C 49 % 1017,7 hPa 0,0 mm 2,9 km/h (1 Bft) N-NE 22 0 min 0 W/m 11,6 C 22,9 C 4,0 km/h (1 Bft)
22/08/2012 21:30 22,6 C 50 % 1017,7 hPa 0,0 mm 3,2 km/h (1 Bft) N 360 0 min 0 W/m 11,6 C 22,6 C 8,6 km/h (2 Bft)
22/08/2012 21:40 22,6 C 50 % 1017,8 hPa 0,0 mm 0,4 km/h (0 Bft) N-NE 22 0 min 0 W/m 11,6 C 22,6 C 0,4 km/h (0 Bft)
22/08/2012 21:50 22,5 C 51 % 1017,9 hPa 0,0 mm 0,0 km/h (0 Bft) N-NE 22 0 min 0 W/m 11,8 C 22,5 C 1,4 km/h (1 Bft)
22/08/2012 22:00 22,4 C 51 % 1017,9 hPa 0,0 mm 0,0 km/h (0 Bft) NE 45 0 min 0 W/m 11,8 C 22,4 C 0,0 km/h (0 Bft)
22/08/2012 22:10 22,4 C 51 % 1017,9 hPa 0,0 mm 3,2 km/h (1 Bft) N-NE 22 0 min 0 W/m 11,8 C 22,4 C 7,9 km/h (2 Bft)
22/08/2012 22:20 22,3 C 51 % 1018,0 hPa 0,0 mm 0,0 km/h (0 Bft) N-NE 22 0 min 0 W/m 11,7 C 22,3 C 0,0 km/h (0 Bft)
22/08/2012 22:30 22,1 C 51 % 1018,0 hPa 0,0 mm 1,1 km/h (1 Bft) N-NE 22 0 min 0 W/m 11,5 C 22,1 C 4,0 km/h (1 Bft)
22/08/2012 22:40 21,9 C 51 % 1018,0 hPa 0,0 mm 1,1 km/h (1 Bft) N-NE 22 0 min 0 W/m 11,3 C 21,9 C 1,1 km/h (1 Bft)
22/08/2012 22:50 21,8 C 51 % 1018,0 hPa 0,0 mm 2,2 km/h (1 Bft) N-NE 22 0 min 0 W/m 11,2 C 21,8 C 4,3 km/h (1 Bft)
22/08/2012 23:00 21,6 C 52 % 1018,0 hPa 0,0 mm 0,0 km/h (0 Bft) N-NE 22 0 min 0 W/m 11,3 C 21,6 C 0,0 km/h (0 Bft)
22/08/2012 23:10 21,4 C 52 % 1018,0 hPa 0,0 mm 3,6 km/h (1 Bft) N-NE 22 0 min 0 W/m 11,1 C 21,4 C 7,2 km/h (2 Bft)
22/08/2012 23:20 21,2 C 52 % 1018,1 hPa 0,0 mm 3,2 km/h (1 Bft) NE 45 0 min 0 W/m 10,9 C 21,2 C 7,6 km/h (2 Bft)
22/08/2012 23:30 20,9 C 53 % 1018,1 hPa 0,0 mm 0,0 km/h (0 Bft) N 360 0 min 0 W/m 11,0 C 20,9 C 3,2 km/h (1 Bft)
22/08/2012 23:40 20,6 C 53 % 1018,0 hPa 0,0 mm 1,4 km/h (1 Bft) N-NE 22 0 min 0 W/m 10,7 C 20,6 C 6,8 km/h (2 Bft)
22/08/2012 23:50 20,3 C 54 % 1018,0 hPa 0,0 mm 1,4 km/h (1 Bft) N 360 0 min 0 W/m 10,7 C 20,3 C 4,0 km/h (1 Bft)
_ Min-Heure 07:50 17:50 19:50 - 23:30 - - - - 23:40 07:50 23:00
Minimum _ 15,9 C 41 % 1016,9 hPa - 0,0 km/h (0 Bft) - - - - 10,7 C 15,9 C 0,0 km/h (0 Bft)
_ Max-Heure 17:10 08:20 10:50 23:50 17:50 - - 23:50 23:50 00:30 17:10 11:40
Maximum _ 29,6 C 87 % 1020,3 hPa 0,0 mm 9,7 km/h
N-NO (2 Bft)
- - 0 min 0 W/m 15,5 C 29,6 C 16,9 km/h
N (3 Bft)
Moyenne _ 23,0 C 59 % 1019,0 hPa #0,0 mm 2,7 km/h (1 Bft) N-NE - #0 min. 0 W/m 13,9 C 23,0 C 4,8 km/h (1 Bft)
Saint Bonnet de Bellac- Haute Vienne - France